Other Public Products
Issued by NWS Grand Forks, ND

Home | Current Version | Previous Version | Text Only | Print | Product List | Glossary Off
Versions: 1 2 3 4 5 6 7 8 9 10 11 12 13 14 15 16 17 18 19 20 21 22 23 24 25 26 27 28 29 30 31 32 33 34 35 36 37 38 39 40 41 42 43 44 45 46 47 48 49 50

000
FPUS83 KFGF 160310
OPUFGF
PRAIRIE TO PINES WEATHER ROUNDUP
NATIONAL WEATHER SERVICE EASTERN NORTH DAKOTA/GRAND FORKS ND
1000 PM CDT TUE AUG 15 2017

 **SATELLITE DATA USED TO AUGMENT SKY COVER AT AUTOMATED STATIONS**
 *****  WEATHER ACROSS EASTERN NORTH DAKOTA  *****

CITY           SKY/WX    TMP DP  RH WIND       PRES   REMARKS
GRAND FORKS    LGT RAIN  69  61  75 E3        29.87R
GRAND FORKS AF CLOUDY    66  62  86 E3        29.88R
GRAND CITY NWS NOT AVBL
BUXTON           N/A     67  63  86 E5          N/A
DEVILS LAKE    RAIN      63  61  93 E10       29.89R
FARGO          FAIR      69  61  75 SE8       29.86R
WAHPETON ARPT  FAIR      64  55  72 SE8       29.88S
$$

 *****  WEATHER ACROSS CENTRAL AND WESTERN NORTH DAKOTA  *****

CITY           SKY/WX    TMP DP  RH WIND       PRES   REMARKS
JAMESTOWN      LGT RAIN  66  62  87 SE12      29.84R
BISMARCK       LGT RAIN  64  63  96 NW3       29.84R
MINOT          FAIR      61  59  93 N3        29.88R
MINOT AFB      FAIR      61  60  96 SE3       29.86S
GARRISON         N/A     61  61 100 N7        29.87R
WILLISTON      MOCLDY    67  61  81 CALM      29.87R
DICKINSON      CLOUDY    63  62  97 N3        29.90R
HETTINGER      CLOUDY    62  60  93 N8        29.91R
$$

 *****  OTHER OBSERVATIONS NORTHEAST NORTH DAKOTA  *****

CITY           SKY/WX    TMP DP  RH WIND       PRES   REMARKS
WALHALLA       FAIR      64  64 100 S6        29.89R
LANGDON        CLOUDY    63  63 100 SE6       29.91R
CAVALIER       LGT RAIN  64  63  94 CALM      29.88R
GRAFTON        FAIR      64  64 100 CALM      29.89S
CANDO          CLOUDY    63  63 100 E5        29.91R
FORT TOTTEN      N/A     62  61  96 SE7       29.95S
ROLLA          CLOUDY    59  59 100 CALM      29.91R
RUGBY          CLOUDY    61  61 100 N3        29.88R
 ***** THE ABOVE OBSERVATIONS ARE NON NWS ARE NOT QUALITY
        CONTROLLED AND MAY MIS-REPORT RAIN FOR SNOW...
$$

 *****  OTHER OBSERVATIONS SOUTHEAST NORTH DAKOTA *****

CITY           SKY/WX    TMP DP  RH WIND       PRES   REMARKS
COOPERSTOWN    MOCLDY    64  63  94 E10       29.87R
VALLEY CITY      N/A     66  63  88 SE9G17    29.87S
OAKES          NOT AVBL
GWINNER        PTCLDY    64  61  88 SE8       29.86R
BUFFALO          N/A     65  56  72 W6          N/A
WYNDMERE       NOT AVBL
 ***** THE ABOVE OBSERVATIONS ARE NON NWS ARE NOT QUALITY
       CONTROLLED AND MAY MIS-REPORT RAIN FOR SNOW...
$$

  *****  WEATHER ACROSS NORTHERN MINNESOTA  *****

CITY           SKY/WX    TMP DP  RH WIND       PRES   REMARKS
FLAG ISLAND    FAIR      72  63  73 CALM      29.91S HAZE
WARROAD        FAIR      68  64  88 CALM      29.92S
ROSEAU         FAIR      66  61  82 CALM      29.92R
HALLOCK        LGT RAIN  66  63  88 SE3       29.88S
THF RVR FALLS  CLOUDY    66  60  81 E5        29.92R
HALSTAD        NOT AVBL
FOSSTON        CLOUDY    64  57  77 CALM      29.93R
BAUDETTE       FAIR      66  61  84 CALM      29.93R
WASKISH        FAIR      64  63  94 CALM      29.94R
CROOKSTON      CLOUDY    70  61  73 E6        29.89R
$$
  *****  WEATHER ACROSS CENTRAL AND WEST MINNESOTA  *****

CITY           SKY/WX    TMP DP  RH WIND       PRES   REMARKS
BEMIDJI        FAIR      68  59  73 SE5       29.93S
PARK RAPIDS    CLOUDY    69  60  73 SE6       29.94R
WADENA         FAIR      64  59  82 CALM      29.95R
DETROIT LAKES  FAIR      68  59  73 SE9       29.93R
MOORHEAD       FAIR      66  61  82 SE5       29.88S
FERGUS FALLS   FAIR      66  57  72 SE6       29.90R
ELBOW LAKE     FAIR      65  58  80 SE7       29.91R
MORRIS MN      FAIR      64  61  88 SE9       29.89S
STAPLES        CLOUDY    64  57  77 CALM      29.95R
WHEATON        FAIR      63  59  88 SE3       29.90R
$$
  *****  WEATHER ELSEWHERE ACROSS MINNESOTA  *****

CITY           SKY/WX    TMP DP  RH WIND       PRES   REMARKS
DULUTH         FAIR      58  56  93 E15       29.99S
INTRNTL FALLS  CLOUDY    67  59  75 CALM      29.93S
ELY            FAIR      57  46  67 SE3       30.00F
CLOQUET        FAIR      61  54  77 E6        29.98S
BRAINERD       FAIR      65  59  81 SE3       29.95R
HIBBING        FAIR      59  56  89 SE6       29.98R
ALEXANDRIA     FAIR      64  58  80 SE6       29.94R
SAINT CLOUD    FAIR      67  58  72 SE7       29.94R
MINNEAPOLIS    CLOUDY    69  60  73 SE7       29.95R
$$

  *****  WEATHER ACROSS SOUTH DAKOTA  *****

CITY           SKY/WX    TMP DP  RH WIND       PRES   REMARKS
SIOUX FALLS    CLOUDY    67  65  93 SE12      29.86S
BROOKINGS      CLOUDY    65  62  90 SE13      29.86F
WATERTOWN      CLOUDY    65  63  93 SE8       29.87R
HURON          CLOUDY    68  64  87 SE14G22   29.84R
SISSETON         N/A     66  62  87 SE10      29.86R
ABERDEEN       MOCLDY    68  64  87 SE7       29.84R
MITCHELL       CLOUDY    67  65  93 SE10      29.84R
PIERRE         LGT RAIN  69  65  86 SE5       29.83R
MOBRIDGE       FAIR      67  65  93 E8        29.81R
RAPID CITY     FAIR      66  57  72 N13       29.89R
$$

  *****  SOME WEATHER IN NEARBY STATES *****

CITY           SKY/WX    TMP DP  RH WIND       PRES   REMARKS
GLASGOW MT     FAIR      64  36  35 NE12      29.87R
GREAT FALLS MT FAIR      69  29  22 E9        29.89R
CHEYENNE WY    CLOUDY    56  48  74 N5        30.06R
SCOTTSBLUFF NE FAIR      63  58  83 W9        29.93R
OMAHA NE       CLOUDY    72  65  78 NE10      29.89R
DES MOINES IA  MOCLDY    71  69  93 NE8       29.91R
DAVENPORT IA   FAIR      69  66  90 NE8       29.97R
CHICAGO IL     MOCLDY    70  62  76 NE5       29.98R
EAU CLAIRE WI  FAIR      62  58  86 NE3       29.96R
LA CROSSE WI   FAIR      69  64  84 E6        29.96R
$$

  *****  SOME NATIONAL WEATHER *****

CITY           SKY/WX    TMP DP  RH WIND       PRES   REMARKS
LA GUARDIA NY  CLOUDY    73  71  93 CALM      29.91S
RALEIGH NC     FAIR      78  75  90 CALM      29.93R
ATLANTA GA     MOCLDY    80  74  81 W7        30.01R
NEW ORLEANS LA MOCLDY    76  74  93 S3        29.97S
OKLAHOMA CITY  FAIR      74  71  91 SE9       29.85R
ALBUQUERQUE NM CLOUDY    77  35  21 N10       30.03R
SALT LAKE CITY FAIR      72  40  31 W6        29.95R
LOS ANGELES CA FAIR      67  61  81 W9        29.89R
BOISE ID       FAIR      80  38  22 W3        29.85R
SEATTLE WA     FAIR      74  42  31 N6        29.98S
$$

*** WEATHER ACROSS MANITOBA...SASKATCHEWAN AND ONTARIO ***
                ***ONTARIO***

CITY           SKY/WX    TMP DP  RH WIND       PRES   REMARKS
GERALDTON      PTCLDY    55  50  82 W2        30.04R
THUNDER BAY    CLEAR     52  50  93 W3        30.03S
SIOUX LOOKOUT  PTCLDY    64  55  72 E5        29.96F
TORONTO        CLEAR     68  61  77 N12       29.95R
BIG TROUT LK   CLEAR     59  50  72 W5        29.95R
PICKLE LAKE    NOT AVBL
DRYDEN         CLOUDY    66  55  68 NE3       29.95S
KENORA         MOCLDY    72  55  56 VRB2      29.94S
$$
                *** MANITOBA***

CITY           SKY/WX    TMP DP  RH WIND       PRES   REMARKS
BRANDON        MOCLDY    64  61  88 SE7       29.89R
DAUPHIN        CLOUDY    66  61  82 S3        29.84S
ISLAND LAKE    MOCLDY    68  57  68 SE2       29.92R
PILOT MOUND      N/A     61  59  94 CALM        N/A
THE PAS        LGT RAIN  64  63  94 S14       29.79R
THOMPSON       PTCLDY    68  50  52 VRB2      29.84S
WINNIPEG       LGT RAIN  64  63  94 NE2       29.90R
LYNN LAKE      PTCLDY    66  55  68 MISG      29.79R
CHURCHILL      CLEAR     66  63  88 SE9       29.79S
GILLAM         PTCLDY    66  48  52 S6        29.87R
$$
                ***SASKATCHEWAN***

CITY           SKY/WX    TMP DP  RH WIND       PRES   REMARKS
ESTEVAN        CLOUDY    59  55  88 CALM      29.87R
KINDERSLEY     PTCLDY    61  46  59 W5        29.85R
LLOYDMINSTER   PTCLDY    55  48  76 W12       29.78R
PRINCE ALBERT  PTCLDY    59  50  72 SW8       29.79R
REGINA         PTCLDY    59  46  63 NW2       29.89R
YORKTON        PTCLDY    61  59  94 S3        29.85R
N. BATTLEFORD  CLEAR     57  50  77 W7        29.81R



USA.gov is the U.S. government's official web portal to all federal, state and local government web resources and services.